Weather History for Indianapolis, IN

Change the Weather History Date:

Wednesday, March 20, 2013

  Actual Average Record
Temperature  
Mean Temperature 27 °F 44 °F  
Max Temperature 33 °F 54 °F 83 °F (2012)
Min Temperature 21 °F 34 °F 3 °F (1885)
Degree Days  
Heating Degree Days 38 21  
Month to date heating degree days 601 496  
Since 1 July heating degree days 4612 4639  
Cooling Degree Days 0 0  
Month to date cooling degree days 0 0  
Year to date cooling degree days 0 0  
Moisture  
Dew Point 13 °F    
Average Humidity 55    
Maximum Humidity 68    
Minimum Humidity 42    
Precipitation  
Precipitation 0.00 in 0.12 in 2.13 in (1882)
Month to date precipitation 1.27 2.17  
Year to date precipitation 9.05 7.15  
Snow  
Snow 0.00 in 0.10 in 4.00 in (1924)
Month to date snowfall 5.3 2.1  
Since 1 July snowfall 25.3 25.2  
Snow Depth 0.00 in    
Sea Level Pressure  
Sea Level Pressure 30.07 in    
Wind  
Wind Speed 15 mph (West)    
Max Wind Speed 26 mph    
Max Gust Speed 32 mph    
Visibility 10 miles    
Events      
T = Trace of Precipitation, MM = Missing Value Source: NWS Daily Summary

Daily Weather History Graph

Daily Weather History Graph

Search for Another Location

Airport:

Trip Planner

Search our weather history database for the weather conditions in past years. The results will help you decide how hot, cold, wet, or windy it might be!

Date:

Astronomy

Mar. 20, 2013 Rise Set
Actual Time 7:48 AM EDT 7:57 PM EDT
Civil Twilight 7:21 AM EDT 8:24 PM EDT
Nautical Twilight 6:49 AM EDT 8:55 PM EDT
Astronomical Twilight 6:17 AM EDT 9:28 PM EDT
Moon 1:33 PM EDT (3/20) 3:26 AM EDT (3/20)
Length of Visible Light 13h 03m
Length of Day
12h 09m
First Quarter, 59% of the Moon is Illuminated
Mar 20
First Quarter
Mar 27
Full
Apr 3
Last Quarter
Apr 10
New
Apr 18
First Quarter

Hourly Weather History & Observations

Time (EDT) Temp. Windchill Dew Point Humidity Pressure Visibility Wind Dir Wind Speed Gust Speed Precip Events Conditions
12:54 AM 28.9 °F 20.4 °F 17.1 °F 61% 30.12 in 10.0 mi WSW 9.2 mph - N/A   Clear
1:54 AM 27.0 °F 18.7 °F 17.1 °F 66% 30.11 in 10.0 mi WSW 8.1 mph - N/A   Clear
2:54 AM 26.1 °F 18.4 °F 16.0 °F 66% 30.10 in 10.0 mi SW 6.9 mph - N/A   Clear
3:54 AM 26.1 °F 17.6 °F 17.1 °F 69% 30.08 in 10.0 mi WSW 8.1 mph - N/A   Clear
4:54 AM 26.1 °F 17.6 °F 17.1 °F 69% 30.05 in 10.0 mi West 8.1 mph - N/A   Clear
5:54 AM 26.1 °F 17.6 °F 16.0 °F 66% 30.05 in 10.0 mi West 8.1 mph - N/A   Clear
6:54 AM 26.1 °F 15.6 °F 16.0 °F 66% 30.06 in 10.0 mi West 11.5 mph - N/A   Partly Cloudy
7:54 AM 25.0 °F 14.2 °F 16.0 °F 69% 30.07 in 10.0 mi WNW 11.5 mph - N/A   Partly Cloudy
8:52 AM 26.6 °F 15.7 °F 17.6 °F 69% 30.06 in 10.0 mi WNW 12.7 mph - N/A   Mostly Cloudy
8:54 AM 27.0 °F 16.7 °F 17.1 °F 66% 30.08 in 10.0 mi WNW 11.5 mph - N/A   Mostly Cloudy
9:51 AM 26.6 °F 14.3 °F 15.8 °F 64% 30.07 in 10.0 mi WNW 16.1 mph 25.3 mph N/A   Scattered Clouds
9:54 AM 28.0 °F 15.7 °F 15.1 °F 58% 30.09 in 10.0 mi West 17.3 mph - N/A   Scattered Clouds
10:54 AM 28.0 °F 15.7 °F 12.9 °F 53% 30.09 in 10.0 mi WNW 17.3 mph 29.9 mph N/A   Scattered Clouds
11:54 AM 28.9 °F 18.2 °F 12.9 °F 51% 30.09 in 10.0 mi West 13.8 mph 26.5 mph N/A   Mostly Cloudy
12:54 PM 28.9 °F 15.4 °F 10.0 °F 45% 30.09 in 10.0 mi WNW 21.9 mph 28.8 mph N/A   Partly Cloudy
1:54 PM 30.9 °F 18.1 °F 10.0 °F 42% 30.08 in 10.0 mi West 21.9 mph 29.9 mph N/A   Scattered Clouds
2:54 PM 30.9 °F 19.1 °F 10.0 °F 42% 30.06 in 10.0 mi West 18.4 mph 27.6 mph N/A   Mostly Cloudy
3:54 PM 30.9 °F 18.1 °F 10.0 °F 42% 30.05 in 10.0 mi WNW 21.9 mph 29.9 mph N/A   Mostly Cloudy
4:54 PM 28.0 °F 14.3 °F 8.1 °F 43% 30.06 in 10.0 mi WNW 21.9 mph 29.9 mph N/A   Mostly Cloudy
5:54 PM 27.0 °F 12.5 °F 7.0 °F 43% 30.04 in 10.0 mi WNW 23.0 mph 27.6 mph N/A   Mostly Cloudy
6:54 PM 27.0 °F 12.5 °F 7.0 °F 43% 30.05 in 10.0 mi West 23.0 mph 27.6 mph N/A   Mostly Cloudy
7:54 PM 26.1 °F 15.6 °F 9.0 °F 49% 30.05 in 10.0 mi West 11.5 mph - N/A   Mostly Cloudy
8:54 PM 25.0 °F 11.3 °F 8.1 °F 49% 30.05 in 10.0 mi WNW 18.4 mph - N/A   Mostly Cloudy
9:54 PM 25.0 °F 13.6 °F 9.0 °F 51% 30.05 in 10.0 mi WNW 12.7 mph 20.7 mph N/A   Overcast
10:54 PM 23.0 °F 8.3 °F 9.0 °F 55% 30.04 in 10.0 mi NW 19.6 mph 25.3 mph N/A   Mostly Cloudy
11:54 PM 21.9 °F 9.2 °F 10.0 °F 60% 30.05 in 10.0 mi WNW 13.8 mph 20.7 mph N/A   Scattered Clouds